TimeEDT,TemperatureF,Dew PointF,Humidity,Sea Level PressureIn,VisibilityMPH,Wind Direction,Wind SpeedMPH,Gust SpeedMPH,PrecipitationIn,Events,Conditions,WindDirDegrees,DateUTC
2:35 AM,53.6,37.4,54,29.85,10.0,Calm,Calm,-,N/A,,Clear,0,2012-10-19 06:35:00
2:55 AM,51.8,41.0,67,29.85,10.0,Calm,Calm,-,N/A,,Clear,0,2012-10-19 06:55:00
3:15 AM,51.8,35.6,54,29.85,10.0,Calm,Calm,-,N/A,,Clear,0,2012-10-19 07:15:00
3:35 AM,51.8,35.6,54,29.85,10.0,Calm,Calm,-,N/A,,Clear,0,2012-10-19 07:35:00
3:55 AM,50.0,35.6,58,29.84,10.0,Calm,Calm,-,N/A,,Clear,0,2012-10-19 07:55:00
4:15 AM,50.0,37.4,62,29.84,10.0,Calm,Calm,-,N/A,,Clear,0,2012-10-19 08:15:00
4:35 AM,46.4,37.4,71,29.83,10.0,Calm,Calm,-,N/A,,Clear,0,2012-10-19 08:35:00
4:55 AM,44.6,39.2,81,29.83,10.0,Calm,Calm,-,N/A,,Clear,0,2012-10-19 08:55:00
5:15 AM,48.2,37.4,66,29.83,10.0,Calm,Calm,-,N/A,,Clear,0,2012-10-19 09:15:00
5:35 AM,44.6,37.4,76,29.83,10.0,Calm,Calm,-,N/A,,Clear,0,2012-10-19 09:35:00
5:55 AM,46.4,39.2,76,29.83,10.0,Calm,Calm,-,N/A,,Clear,0,2012-10-19 09:55:00
6:15 AM,44.6,37.4,76,29.83,10.0,Calm,Calm,-,N/A,,Clear,0,2012-10-19 10:15:00
6:35 AM,44.6,37.4,76,29.83,10.0,Calm,Calm,-,N/A,,Clear,0,2012-10-19 10:35:00
6:55 AM,42.8,37.4,81,29.83,10.0,Calm,Calm,-,N/A,,Clear,0,2012-10-19 10:55:00
7:15 AM,42.8,37.4,81,29.83,10.0,Calm,Calm,-,N/A,,Clear,0,2012-10-19 11:15:00
7:35 AM,42.8,37.4,81,29.83,10.0,Calm,Calm,-,N/A,,Clear,0,2012-10-19 11:35:00
7:55 AM,44.6,39.2,81,29.83,10.0,Calm,Calm,-,N/A,,Clear,0,2012-10-19 11:55:00
8:15 AM,44.6,33.8,66,29.83,10.0,Calm,Calm,-,N/A,,Clear,0,2012-10-19 12:15:00
8:35 AM,42.8,35.6,76,29.84,10.0,South,3.5,-,N/A,,Clear,190,2012-10-19 12:35:00
8:55 AM,44.6,37.4,76,29.84,10.0,Calm,Calm,-,N/A,,Clear,0,2012-10-19 12:55:00
9:15 AM,48.2,37.4,66,29.84,10.0,Calm,Calm,-,N/A,,Clear,0,2012-10-19 13:15:00
9:35 AM,50.0,39.2,66,29.84,10.0,Calm,Calm,-,N/A,,Clear,0,2012-10-19 13:35:00
9:55 AM,51.8,37.4,58,29.84,10.0,Calm,Calm,-,N/A,,Clear,0,2012-10-19 13:55:00
10:15 AM,53.6,37.4,54,29.84,10.0,SSE,4.6,-,N/A,,Clear,160,2012-10-19 14:15:00
10:35 AM,55.4,35.6,47,29.84,10.0,SW,3.5,-,N/A,,Clear,220,2012-10-19 14:35:00
10:55 AM,57.2,37.4,48,29.84,10.0,Calm,Calm,-,N/A,,Clear,0,2012-10-19 14:55:00
11:15 AM,60.8,26.6,27,29.83,10.0,West,6.9,-,N/A,,Clear,260,2012-10-19 15:15:00
11:35 AM,62.6,26.6,26,29.84,10.0,WSW,3.5,-,N/A,,Clear,240,2012-10-19 15:35:00
11:55 AM,64.4,26.6,24,29.83,10.0,WSW,3.5,-,N/A,,Clear,240,2012-10-19 15:55:00
12:15 PM,66.2,15.8,14,29.83,10.0,SW,6.9,-,N/A,,Clear,230,2012-10-19 16:15:00
12:35 PM,66.2,14.0,13,29.84,10.0,SW,11.5,17.3,N/A,,Clear,220,2012-10-19 16:35:00
12:55 PM,68.0,10.4,11,29.83,10.0,SW,15.0,26.5,N/A,,Clear,230,2012-10-19 16:55:00
1:15 PM,68.0,10.4,11,29.83,10.0,WSW,9.2,16.1,N/A,,Clear,240,2012-10-19 17:15:00
1:35 PM,68.0,-2.2,6,29.82,10.0,SW,15.0,27.6,N/A,,Clear,230,2012-10-19 17:35:00
1:55 PM,69.8,5.0,8,29.80,10.0,WSW,5.8,16.1,N/A,,Clear,240,2012-10-19 17:55:00
2:15 PM,69.8,-0.4,6,29.79,10.0,WSW,5.8,-,N/A,,Clear,240,2012-10-19 18:15:00
2:35 PM,69.8,-4.0,5,29.78,10.0,WSW,5.8,17.3,N/A,,Clear,240,2012-10-19 18:35:00
2:55 PM,69.8,-16.6,4,29.78,10.0,SW,13.8,23.0,N/A,,Clear,220,2012-10-19 18:55:00
3:15 PM,71.6,-7.6,4,29.77,10.0,WSW,12.7,17.3,N/A,,Clear,240,2012-10-19 19:15:00
3:35 PM,69.8,1.4,7,29.77,10.0,West,6.9,19.6,N/A,,Clear,260,2012-10-19 19:35:00
3:55 PM,69.8,1.4,7,29.77,10.0,SW,9.2,-,N/A,,Clear,230,2012-10-19 19:55:00
4:15 PM,69.8,3.2,7,29.77,10.0,WSW,5.8,19.6,N/A,,Clear,240,2012-10-19 20:15:00
4:35 PM,69.8,6.8,9,29.77,10.0,West,5.8,16.1,N/A,,Clear,260,2012-10-19 20:35:00
4:55 PM,69.8,8.6,9,29.76,10.0,WSW,4.6,16.1,N/A,,Clear,250,2012-10-19 20:55:00
5:15 PM,68.0,8.6,10,29.76,10.0,WSW,8.1,16.1,N/A,,Clear,240,2012-10-19 21:15:00
5:35 PM,68.0,6.8,9,29.77,10.0,SW,9.2,-,N/A,,Clear,220,2012-10-19 21:35:00
5:55 PM,68.0,10.4,11,29.77,10.0,West,4.6,16.1,N/A,,Clear,260,2012-10-19 21:55:00
6:15 PM,66.2,12.2,12,29.77,10.0,SW,5.8,-,N/A,,Clear,230,2012-10-19 22:15:00
6:35 PM,64.4,14.0,14,29.77,10.0,SW,4.6,-,N/A,,Clear,230,2012-10-19 22:35:00
6:55 PM,64.4,15.8,15,29.78,10.0,Calm,Calm,-,N/A,,Clear,0,2012-10-19 22:55:00
7:15 PM,62.6,17.6,18,29.78,10.0,West,3.5,-,N/A,,Clear,270,2012-10-19 23:15:00
7:35 PM,60.8,21.2,22,29.79,10.0,Calm,Calm,-,N/A,,Clear,0,2012-10-19 23:35:00
7:55 PM,59.0,24.8,27,29.80,10.0,West,3.5,-,N/A,,Clear,280,2012-10-19 23:55:00
8:15 PM,59.0,23.0,25,29.81,10.0,WNW,3.5,-,N/A,,Clear,290,2012-10-20 00:15:00
8:35 PM,57.2,26.6,31,29.82,10.0,Calm,Calm,-,N/A,,Clear,0,2012-10-20 00:35:00
8:55 PM,55.4,23.0,29,29.83,10.0,West,3.5,-,N/A,,Clear,280,2012-10-20 00:55:00
9:15 PM,57.2,23.0,27,29.83,10.0,Calm,Calm,-,N/A,,Clear,0,2012-10-20 01:15:00
9:35 PM,57.2,23.0,27,29.84,10.0,West,3.5,-,N/A,,Clear,280,2012-10-20 01:35:00
9:55 PM,57.2,23.0,27,29.83,10.0,Calm,Calm,-,N/A,,Clear,0,2012-10-20 01:55:00
10:15 PM,57.2,23.0,27,29.84,10.0,Calm,Calm,-,N/A,,Clear,0,2012-10-20 02:15:00
10:35 PM,55.4,26.6,33,29.84,10.0,Calm,Calm,-,N/A,,Clear,0,2012-10-20 02:35:00
10:55 PM,55.4,26.6,33,29.84,10.0,Calm,Calm,-,N/A,,Clear,0,2012-10-20 02:55:00
11:15 PM,55.4,26.6,33,29.84,10.0,Calm,Calm,-,N/A,,Clear,0,2012-10-20 03:15:00
11:35 PM,55.4,26.6,33,29.84,10.0,Calm,Calm,-,N/A,,Clear,0,2012-10-20 03:35:00
11:55 PM,55.4,28.4,36,29.84,10.0,Calm,Calm,-,N/A,,Clear,0,2012-10-20 03:55:00